Aérodrome :
LOGIN :

S'inscrire | Disclaimer

   EN    FR    IT 

 










Légende :    VFR   VFR Marginal   IFR   IFR Intensif   IFR Très Intensif
Visi : 
Plafond : 
>= 8 km
>= 3000ft
5 à 8 km
1000 à 3000 ft
1500m à 5 km
500 à 1000 ft
800 à 1500m
200 à 500 ft
< 800m
< 200 ft
Symboles :   Orages  Brouillard  Fortes neiges  Fortes précipitations  Vent > 20 kt
SIGMETs :   Divers  Orages  Givrage  Turbulence  Onde Orograph.  Cendres Volcan.







- Altitude de l'aérodrome : 751 ft
- Code IATA : ENC
- Voir les cartes d'approche


LFSN - Nancy Essey

DERNIER METAR :
  • 261200Z AUTO 30010KT 260V330 9999 BKN041 OVC050 20/12 Q1013

METARs EXPIRÉS :
  • 261130Z AUTO 28010KT 240V320 9999 FEW042/// SCT048/// 20/11 Q1013
  • 261100Z AUTO 27011KT 9999 FEW035 BKN043 19/11 Q1013
  • 261030Z AUTO 27008KT 220V330 9999 BKN035/// BKN043/// 19/11 Q1013
  • 261000Z AUTO 30008KT 240V340 9999 BKN032 BKN039 18/12 Q1013
  • 260930Z AUTO 28008KT 230V330 9999 BKN025 BKN035 18/12 Q1013

Prévision TAF périmée.
Pas de NOTAMs connus pour ce terrain.



MET'MAP, la Météo Aéronautique d'un coup d'oeil ! - Copyright ORBIFLY Décembre 2007 - Disclaimer

ORBIFLY MET'MAP TEAM :

Programmation & Développement : Alexandra Zaïnal
Conception & Développement : Baudouin d'Aumeries
Co-Programmation & Développement : Marc-Olivier Méhu
Soutien technique & logistique : Manuel Goepfert

Contact : metmap@orbifly.com




SOURCES & CREDITS :

   NOAA